Weather in Delicias

Mexico     28°11′31″N   105°28′25″W
temp.,
°C
wind,
m/s
gust,
m/s
humid.,
%
clouds,
%
prec.,
mm/h
press.,
hPa
HPBL,
m
13 june, sun
sun1300:00+27se47210 0.0 101187
03:00+24sse23415 0.0 101224
06:00+22e114988 0.0 101311
09:00+28se22375 0.0 1014867
12:00+35e58142 0.0 10122770
15:00+38e81072 0.0 10094119
18:00+37e8988 0.0 10083906
21:00+29e34160 0.0 101048
14 june, mon
mon1400:00+26se35249 0.0 101277
03:00+23sw113499 0.0 101311
06:00+22se113796 0.0 101411
09:00+28se3525100 0.0 1015898
12:00+33e361469 0.0 10132661
15:00+37e68105 0.0 10093995
18:00+36ene681216 0.0 10084200
21:00+31ene5101928 0.0 1010439
15 june, tue
tue1500:00+25e23345 0.0 101263
03:00+23s11497 0.0 101312
06:00+24nnw1146100 0.0 101429
09:00+28e453113 0.0 10161486
12:00+32e562359 0.0 10133303
15:00+36e77155 0.0 10103815
18:00+34ene871728 0.0 10093583
21:00+30e7132719 0.0 1011480
16 june, wed
wed1600:00+27ese814411 0.0 1014613
03:00+25se254838 0.0 1014261
06:00+22ese23582 0.0 101542
09:00+27ese45420 0.0 10161321
12:00+32ene46233 0.0 10133095
15:00+36ene671512 0.0 10104219
18:00+35ene861472 0.0 10083879
21:00+29ene510215 0.0 1010195
17 june, thu
thu1700:00+26ese712400 0.0 1013546
03:00+23ese23493 0.0 101447
06:00+21ene11570 0.0 101411
09:00+26ene33430 0.0 10141172
12:00+32e56240 0.0 10112887
15:00+33e6619100 0.0 10083462
18:00+33e562010 0.1 10072976
21:00+25sse48374 0.1 1010323